Weather History for York, NE

Change the Weather History Date:

Thursday, May 2, 2013

  Actual Average Record
Temperature  
Mean Temperature 42 °F -  
Max Temperature 50 °F 70 °F 94 °F (1968)
Min Temperature 33 °F 43 °F 25 °F (1967)
Degree Days  
Heating Degree Days 24    
Moisture  
Dew Point 31 °F    
Average Humidity 71    
Maximum Humidity 93    
Minimum Humidity 43    
Precipitation  
Precipitation 0.00 in - - ()
Sea Level Pressure  
Sea Level Pressure 30.50 in    
Wind  
Wind Speed 16 mph (North)    
Max Wind Speed 32 mph    
Max Gust Speed 40 mph    
Visibility 10 miles    
Events      
Averages and records for this station are not official NWS values.
T = Trace of Precipitation, MM = Missing Value Source: NWS Daily Summary

Daily Weather History Graph

Daily Weather History Graph

Search for Another Location

Airport:

Trip Planner

Search our weather history database for the weather conditions in past years. The results will help you decide how hot, cold, wet, or windy it might be!

Date:

Astronomy

May. 02, 2013 Rise Set
Actual Time 6:27 AM CDT 8:28 PM CDT
Civil Twilight 5:57 AM CDT 8:58 PM CDT
Nautical Twilight 5:20 AM CDT 9:35 PM CDT
Astronomical Twilight 4:41 AM CDT 10:15 PM CDT
Moon 2:18 AM CDT (5/2) 1:16 PM CDT (5/2)
Length of Visible Light 15h 01m
Length of Day
14h 01m
Waning Gibbous, 47% of the Moon is Illuminated
May 2
Waning Gibbous
May 9
New
May 17
First Quarter
May 24
Full
May 31
Last Quarter

Hourly Weather History & Observations

Time (CDT) Temp. Windchill Dew Point Humidity Pressure Visibility Wind Dir Wind Speed Gust Speed Precip Events Conditions
12:15 AM 33.8 °F 25.8 °F 32.0 °F 93% 30.45 in 10.0 mi North 10.4 mph - N/A   Overcast
12:35 AM 35.6 °F 27.5 °F 32.0 °F 87% 30.47 in 10.0 mi North 11.5 mph 19.6 mph N/A   Overcast
12:55 AM 35.6 °F 27.1 °F 32.0 °F 87% 30.46 in 10.0 mi North 12.7 mph 17.3 mph N/A   Overcast
1:15 AM 35.6 °F 28.0 °F 32.0 °F 87% 30.47 in 10.0 mi North 10.4 mph - N/A   Overcast
1:35 AM 35.6 °F 26.2 °F 32.0 °F 87% 30.46 in 10.0 mi North 15.0 mph 21.9 mph N/A   Overcast
1:55 AM 35.6 °F 25.9 °F 32.0 °F 87% 30.47 in 10.0 mi North 16.1 mph 21.9 mph N/A   Overcast
2:15 AM 35.6 °F 25.2 °F 32.0 °F 87% 30.48 in 10.0 mi North 18.4 mph 26.5 mph N/A   Overcast
2:35 AM 35.6 °F 26.2 °F 32.0 °F 87% 30.46 in 10.0 mi North 15.0 mph 23.0 mph N/A   Overcast
2:55 AM 35.6 °F 25.5 °F 32.0 °F 87% 30.46 in 10.0 mi North 17.3 mph 20.7 mph N/A   Overcast
3:15 AM 35.6 °F 28.0 °F 32.0 °F 87% 30.47 in 10.0 mi North 10.4 mph 19.6 mph N/A   Overcast
3:35 AM 35.6 °F 26.2 °F 32.0 °F 87% 30.46 in 10.0 mi North 15.0 mph 19.6 mph N/A   Overcast
3:55 AM 35.6 °F 27.5 °F 32.0 °F 87% 30.49 in 10.0 mi North 11.5 mph - N/A   Overcast
4:15 AM 35.6 °F 25.5 °F 32.0 °F 87% 30.49 in 10.0 mi North 17.3 mph 21.9 mph N/A   Overcast
4:35 AM 35.6 °F 25.5 °F 32.0 °F 87% 30.50 in 10.0 mi North 17.3 mph 28.8 mph N/A   Overcast
4:55 AM 35.6 °F 26.2 °F 32.0 °F 87% 30.52 in 10.0 mi North 15.0 mph 24.2 mph N/A   Overcast
5:15 AM 35.6 °F 27.1 °F 32.0 °F 87% 30.52 in 10.0 mi North 12.7 mph 17.3 mph N/A   Overcast
5:35 AM 35.6 °F 27.5 °F 32.0 °F 87% 30.53 in 10.0 mi North 11.5 mph - N/A   Overcast
5:55 AM 35.6 °F 26.6 °F 32.0 °F 87% 30.50 in 10.0 mi NNE 13.8 mph - N/A   Overcast
6:15 AM 35.6 °F 27.1 °F 32.0 °F 87% 30.51 in 10.0 mi North 12.7 mph - N/A   Overcast
6:35 AM 35.6 °F 27.1 °F 32.0 °F 87% 30.53 in 10.0 mi North 12.7 mph - N/A   Overcast
6:55 AM 35.6 °F 26.6 °F 30.2 °F 81% 30.53 in 10.0 mi North 13.8 mph - N/A   Overcast
7:15 AM 35.6 °F 28.0 °F 32.0 °F 87% 30.55 in 10.0 mi North 10.4 mph - N/A   Mostly Cloudy
7:35 AM 35.6 °F 27.5 °F 30.2 °F 81% 30.56 in 10.0 mi North 11.5 mph - N/A   Overcast
7:55 AM 35.6 °F 26.6 °F 30.2 °F 81% 30.57 in 10.0 mi North 13.8 mph 20.7 mph N/A   Mostly Cloudy
8:15 AM 35.6 °F 25.5 °F 30.2 °F 81% 30.57 in 10.0 mi North 17.3 mph 23.0 mph N/A   Scattered Clouds
8:35 AM 35.6 °F 26.2 °F 30.2 °F 81% 30.58 in 10.0 mi North 15.0 mph 25.3 mph N/A   Scattered Clouds
8:55 AM 35.6 °F 24.2 °F 30.2 °F 81% 30.58 in 10.0 mi North 21.9 mph 29.9 mph N/A   Partly Cloudy
9:15 AM 37.4 °F 26.9 °F 30.2 °F 75% 30.57 in 10.0 mi North 20.7 mph 29.9 mph N/A   Partly Cloudy
9:35 AM 37.4 °F 26.4 °F 30.2 °F 75% 30.57 in 10.0 mi North 23.0 mph 31.1 mph N/A   Clear
9:55 AM 37.4 °F 25.9 °F 30.2 °F 75% 30.56 in 10.0 mi North 25.3 mph 29.9 mph N/A   Clear
10:15 AM 37.4 °F 26.9 °F 30.2 °F 75% 30.56 in 10.0 mi North 20.7 mph 32.2 mph N/A   Clear
10:35 AM 39.2 °F 29.3 °F 30.2 °F 70% 30.57 in 10.0 mi North 20.7 mph 31.1 mph N/A   Clear
10:55 AM 39.2 °F 28.3 °F 30.2 °F 70% 30.57 in 10.0 mi North 25.3 mph 32.2 mph N/A   Clear
11:15 AM 41.0 °F 30.5 °F 30.2 °F 65% 30.57 in 10.0 mi North 26.5 mph 35.7 mph N/A   Clear
11:35 AM 41.0 °F 30.5 °F 32.0 °F 70% 30.58 in 10.0 mi North 26.5 mph 35.7 mph N/A   Partly Cloudy
11:55 AM 42.8 °F 33.5 °F 32.0 °F 66% 30.57 in 10.0 mi North 23.0 mph 39.1 mph N/A   Scattered Clouds
12:15 PM 44.6 °F 34.9 °F 32.0 °F 61% 30.57 in 10.0 mi North 28.8 mph 38.0 mph N/A   Mostly Cloudy
12:35 PM 44.6 °F 34.9 °F 32.0 °F 61% 30.56 in 10.0 mi North 28.8 mph 38.0 mph N/A   Mostly Cloudy
12:55 PM 44.6 °F 34.4 °F 32.0 °F 61% 30.56 in 10.0 mi North 32.2 mph 38.0 mph N/A   Mostly Cloudy
1:15 PM 46.4 °F 37.5 °F 32.0 °F 57% 30.55 in 10.0 mi North 27.6 mph 35.7 mph N/A   Scattered Clouds
1:35 PM 46.4 °F 37.9 °F 32.0 °F 57% 30.54 in 10.0 mi North 25.3 mph 36.8 mph N/A   Mostly Cloudy
1:55 PM 46.4 °F 37.9 °F 32.0 °F 57% 30.53 in 10.0 mi North 25.3 mph 36.8 mph N/A   Mostly Cloudy
2:15 PM 48.2 °F - 32.0 °F 54% 30.53 in 10.0 mi NNE 29.9 mph 39.1 mph N/A   Partly Cloudy
2:35 PM 48.2 °F - 32.0 °F 54% 30.53 in 10.0 mi North 27.6 mph 38.0 mph N/A   Mostly Cloudy
2:55 PM 48.2 °F - 32.0 °F 54% 30.52 in 10.0 mi North 27.6 mph 35.7 mph N/A   Scattered Clouds
3:15 PM 50.0 °F - 32.0 °F 50% 30.52 in 10.0 mi NNE 31.1 mph 40.3 mph N/A   Partly Cloudy
3:35 PM 50.0 °F - 32.0 °F 50% 30.51 in 10.0 mi North 25.3 mph 40.3 mph N/A   Partly Cloudy
3:55 PM 50.0 °F - 32.0 °F 50% 30.50 in 10.0 mi NNE 29.9 mph 39.1 mph N/A   Scattered Clouds
4:15 PM 50.0 °F - 32.0 °F 50% 30.49 in 10.0 mi North 21.9 mph 39.1 mph N/A   Partly Cloudy
4:35 PM 48.2 °F - 32.0 °F 54% 30.48 in 10.0 mi North 24.2 mph 36.8 mph N/A   Partly Cloudy
4:55 PM 50.0 °F - 32.0 °F 50% 30.47 in 10.0 mi North 25.3 mph 36.8 mph N/A   Scattered Clouds
5:15 PM 50.0 °F - 30.2 °F 47% 30.47 in 10.0 mi NNE 23.0 mph 39.1 mph N/A   Mostly Cloudy
5:35 PM 50.0 °F - 28.4 °F 43% 30.47 in 10.0 mi North 19.6 mph 40.3 mph N/A   Partly Cloudy
5:55 PM 50.0 °F - 28.4 °F 43% 30.46 in 10.0 mi North 27.6 mph 34.5 mph N/A   Partly Cloudy
6:15 PM 50.0 °F - 30.2 °F 47% 30.46 in 10.0 mi North 17.3 mph 27.6 mph N/A   Clear
6:55 PM 48.2 °F - 28.4 °F 46% 30.45 in 10.0 mi North 21.9 mph 29.9 mph N/A   Partly Cloudy
7:15 PM 48.2 °F - 28.4 °F 46% 30.45 in 10.0 mi North 23.0 mph 26.5 mph N/A   Clear
7:35 PM 48.2 °F - 28.4 °F 46% 30.45 in 10.0 mi NNE 18.4 mph 28.8 mph N/A   Clear
7:55 PM 46.4 °F 40.4 °F 30.2 °F 53% 30.45 in 10.0 mi NNE 13.8 mph - N/A   Clear
8:15 PM 44.6 °F 38.4 °F 30.2 °F 57% 30.44 in 10.0 mi North 12.7 mph 19.6 mph N/A   Clear
8:35 PM 42.8 °F 37.0 °F 32.0 °F 66% 30.44 in 10.0 mi North 10.4 mph - N/A   Clear
8:55 PM 41.0 °F 34.7 °F 30.2 °F 65% 30.44 in 10.0 mi North 10.4 mph - N/A   Clear
9:15 PM 39.2 °F 35.0 °F 30.2 °F 70% 30.44 in 10.0 mi North 5.8 mph - N/A   Clear
9:35 PM 37.4 °F 32.8 °F 30.2 °F 75% 30.44 in 10.0 mi North 5.8 mph - N/A   Clear
9:55 PM 37.4 °F 32.8 °F 30.2 °F 75% 30.44 in 10.0 mi North 5.8 mph - N/A   Clear
10:15 PM 35.6 °F 31.7 °F 30.2 °F 81% 30.44 in 10.0 mi North 4.6 mph - N/A   Clear
10:35 PM 35.6 °F 31.7 °F 30.2 °F 81% 30.43 in 10.0 mi North 4.6 mph - N/A   Clear
10:55 PM 35.6 °F 30.7 °F 28.4 °F 75% 30.43 in 10.0 mi North 5.8 mph - N/A   Clear
11:15 PM 35.6 °F 30.7 °F 28.4 °F 75% 30.42 in 10.0 mi North 5.8 mph - N/A   Clear
11:35 PM 33.8 °F 27.7 °F 28.4 °F 81% 30.42 in 10.0 mi North 6.9 mph - N/A   Clear
11:55 PM 33.8 °F 29.6 °F 28.4 °F 81% 30.42 in 10.0 mi North 4.6 mph - N/A   Clear